KB1KVS Weather Reports


Display with metric or nautical units.
time (UTC)temp
F
wind
direction
speed
MPH
gust
MPH
rain 1hr
in
rain 24hr
in
rain mn
in
humidity
%
barometer
mb
20210304121027 33 338 3.0 6.0 0.00 0.00 0.00 73
20210304120224 33 0 3.0 7.0 0.00 0.00 0.00 74
20210304115323 33 338 3.0 5.0 0.00 0.00 0.00 75
20210304114040 32 338 3.0 6.0 0.00 0.00 0.00 76
20210304113135 32 0 2.0 5.0 0.00 0.00 0.00 76
20210304112327 32 338 2.0 4.0 0.00 0.00 0.00 76
20210304111026 32 0 3.0 5.0 0.00 0.00 0.00 76
20210304110320 32 338 2.0 4.0 0.00 0.00 0.00 76
20210304105622 32 315 1.0 2.0 0.00 0.00 0.00 76
20210304104029 32 338 2.0 4.0 0.00 0.00 0.00 75
20210304103025 33 338 2.0 5.0 0.00 0.00 0.00 75
20210304102254 33 0.0 1.0 0.00 0.00 0.00 75
20210304101022 33 315 2.0 3.0 0.00 0.00 0.00 74
20210304100037 33 0 2.0 4.0 0.00 0.00 0.00 74
20210304095216 34 338 2.0 4.0 0.00 0.00 0.00 74
20210304094029 34 23 2.0 4.0 0.00 0.00 0.00 74
20210304093123 34 23 2.0 4.0 0.00 0.00 0.00 74
20210304092412 34 0 3.0 6.0 0.00 0.00 0.00 74
20210304091027 35 0 2.0 4.0 0.00 0.00 0.00 74
20210304090030 35 0 2.0 4.0 0.00 0.00 0.00 74
20210304085306 35 338 2.0 4.0 0.00 0.00 0.00 73
20210304084028 35 338 3.0 5.0 0.00 0.00 0.00 73
20210304083038 36 315 3.0 5.0 0.00 0.00 0.00 72
20210304082137 36 315 3.0 4.0 0.00 0.00 0.00 71
20210304081022 36 0 2.0 5.0 0.00 0.00 0.00 70
20210304080032 37 0 2.0 5.0 0.00 0.00 0.00 70
20210304075133 37 23 2.0 5.0 0.00 0.00 0.00 70
20210304074036 37 0 3.0 6.0 0.00 0.00 0.00 69
20210304073026 37 23 2.0 5.0 0.00 0.00 0.00 69
20210304072103 38 23 1.0 3.0 0.00 0.00 0.00 68
20210304071026 38 45 1.0 3.0 0.00 0.00 0.00 68
20210304070032 38 338 2.0 4.0 0.00 0.00 0.00 68
20210304065144 38 0 3.0 6.0 0.00 0.00 0.00 68
20210304064023 38 315 2.0 3.0 0.00 0.00 0.00 67
20210304063146 38 0 1.0 2.0 0.00 0.00 0.00 67
20210304062652 38 338 2.0 4.0 0.00 0.00 0.00 67
20210304061045 38 338 3.0 5.0 0.00 0.00 0.00 67
20210304060035 38 338 4.0 9.0 0.00 0.00 0.00 66
20210304055222 39 338 3.0 6.0 0.00 0.00 0.00 66
20210304054028 39 338 3.0 8.0 0.00 0.00 0.00 65
20210304053027 39 23 3.0 6.0 0.00 0.00 0.00 64
20210304052152 39 23 2.0 6.0 0.00 0.00 0.00 63
20210304051031 40 23 2.0 5.0 0.00 0.00 0.00 62
20210304050031 40 23 2.0 5.0 0.00 0.00 0.00 62
20210304045140 40 0 3.0 7.0 0.00 0.00 0.00 61
20210304044028 40 0 4.0 8.0 0.00 0.00 0.00 61
20210304043050 40 338 3.0 7.0 0.00 0.00 0.00 61
20210304042139 40 0 3.0 5.0 0.00 0.00 0.00 61
20210304041028 40 338 5.0 14.0 0.00 0.00 0.00 61
20210304040059 40 338 6.0 10.0 0.00 0.00 0.00 61
20210304035558 40 0 5.0 8.0 0.00 0.00 0.00 60
20210304034041 40 338 5.0 9.0 0.00 0.00 0.00 60
20210304033259 41 338 4.0 9.0 0.00 0.00 0.00 60
20210304032728 41 338 6.0 11.0 0.00 0.00 0.00 59
20210304031024 41 338 5.0 8.0 0.00 0.00 0.00 59
20210304030224 41 338 5.0 9.0 0.00 0.00 0.00 59
20210304025241 41 338 4.0 8.0 0.00 0.00 0.00 59
20210304024027 41 338 5.0 8.0 0.00 0.00 0.00 59
20210304023138 41 338 5.0 8.0 0.00 0.00 0.00 58
20210304022255 41 338 5.0 10.0 0.00 0.00 0.00 58
20210304021022 41 338 6.0 12.0 0.00 0.00 0.00 57
20210304020022 41 338 6.0 12.0 0.00 0.00 0.00 57
20210304015755 41 338 5.0 10.0 0.00 0.00 0.00 57
20210304014028 41 338 5.0 8.0 0.00 0.00 0.00 57
20210304013045 41 338 4.0 8.0 0.00 0.00 0.00 56
20210304012248 41 338 5.0 10.0 0.00 0.00 0.00 56
20210304011105 42 338 5.0 10.0 0.00 0.00 0.00 55
20210304010050 42 338 5.0 7.0 0.00 0.00 0.00 55
20210304005306 42 338 4.0 7.0 0.00 0.00 0.00 55
20210304004033 42 0 3.0 6.0 0.00 0.00 0.00 55
20210304003032 42 338 3.0 5.0 0.00 0.00 0.00 54
20210304002803 42 338 3.0 5.0 0.00 0.00 0.00 54
20210304001048 42 0 3.0 5.0 0.00 0.00 0.00 53
20210303235956 43 0 3.0 8.0 0.00 0.00 0.00 53
20210303234039 43 338 3.0 5.0 0.00 0.00 0.00 52
20210303233202 43 338 3.0 5.0 0.00 0.00 0.00 52
20210303232413 43 45 1.0 3.0 0.00 0.00 0.00 52
20210303231027 43 338 1.0 3.0 0.00 0.00 0.00 51
20210303230026 43 338 2.0 4.0 0.00 0.00 0.00 51
20210303225202 43 0 4.0 6.0 0.00 0.00 0.00 51
20210303224040 43 0 5.0 8.0 0.00 0.00 0.00 50
20210303223214 44 0 6.0 10.0 0.00 0.00 0.00 50
20210303222459 44 0 4.0 7.0 0.00 0.00 0.00 49
20210303221030 44 0 7.0 12.0 0.00 0.00 0.00 48
20210303220056 44 0 9.0 17.0 0.00 0.00 0.00 48
20210303215559 45 338 7.0 12.0 0.00 0.00 0.00 47
20210303214030 45 338 8.0 14.0 0.00 0.00 0.00 46
20210303213120 45 338 6.0 14.0 0.00 0.00 0.00 45
20210303212435 45 0 6.0 11.0 0.00 0.00 0.00 45
20210303211037 45 338 8.0 14.0 0.00 0.00 0.00 45
20210303210156 45 338 5.0 9.0 0.00 0.00 0.00 44
20210303205607 45 338 7.0 12.0 0.00 0.00 0.00 44
20210303204034 45 338 8.0 14.0 0.00 0.00 0.00 44
20210303203123 46 338 9.0 14.0 0.00 0.00 0.00 43
20210303202412 46 338 8.0 13.0 0.00 0.00 0.00 42
20210303201036 46 338 7.0 15.0 0.00 0.00 0.00 43
20210303200157 45 315 9.0 16.0 0.00 0.00 0.00 43
20210303195324 45 338 9.0 15.0 0.00 0.00 0.00 43
20210303194034 45 315 9.0 12.0 0.00 0.00 0.00 42
20210303193225 45 338 10.0 16.0 0.00 0.00 0.00 42
20210303192656 45 338 10.0 18.0 0.00 0.00 0.00 42
20210303191021 45 338 7.0 14.0 0.00 0.00 0.00 41
20210303190525 46 338 7.0 14.0 0.00 0.00 0.00 40
20210303185953 46 338 7.0 12.0 0.00 0.00 0.00 41
20210303184120 45 338 7.0 12.0 0.00 0.00 0.00 41
20210303183128 45 338 7.0 11.0 0.00 0.00 0.00 40
20210303180343 44 315 6.0 12.0 0.00 0.00 0.00 40
20210303174306 43 315 10.0 17.0 0.00 0.00 0.00 40
20210303173039 43 315 10.0 16.0 0.00 0.00 0.00 41
20210303171049 43 315 8.0 15.0 0.00 0.00 0.00 42
20210303170221 42 338 7.0 13.0 0.00 0.00 0.00 42
20210303165225 42 338 8.0 15.0 0.00 0.00 0.00 42
20210303164311 42 315 9.0 19.0 0.00 0.00 0.00 43
20210303163820 41 338 8.0 15.0 0.00 0.00 0.00 42
20210303162954 41 315 8.0 14.0 0.00 0.00 0.00 42
20210303161053 41 338 8.0 17.0 0.00 0.00 0.00 42
20210303160431 40 338 7.0 15.0 0.00 0.00 0.00 41
20210303155133 39 338 7.0 12.0 0.00 0.00 0.00 41
20210303154037 39 338 6.0 11.0 0.00 0.00 0.00 43
20210303153219 38 338 7.0 13.0 0.00 0.00 0.00 42
20210303152525 37 315 7.0 14.0 0.00 0.00 0.00 42
20210303151249 36 315 6.0 14.0 0.00 0.00 0.00 43
20210303150051 36 315 9.0 14.0 0.00 0.00 0.00 41
20210303145236 35 315 7.0 12.0 0.00 0.00 0.00 42
20210303144044 35 315 8.0 12.0 0.00 0.00 0.00 41
20210303143037 34 315 7.0 11.0 0.00 0.00 0.00 42
20210303142043 34 315 7.0 12.0 0.00 0.00 0.00 44
20210303141037 33 315 6.0 11.0 0.00 0.00 0.00 44
20210303140110 32 338 6.0 10.0 0.00 0.00 0.00 45
20210303135312 32 315 5.0 8.0 0.00 0.00 0.00 46
20210303134043 31 315 4.0 7.0 0.00 0.00 0.00 46
20210303133526 31 315 6.0 11.0 0.00 0.00 0.00 47
20210303132028 30 315 6.0 10.0 0.00 0.00 0.00 46
20210303131043 30 315 6.0 12.0 0.00 0.00 0.00 47
20210303130043 30 315 6.0 10.0 0.00 0.00 0.00 48
20210303125056 29 315 7.0 11.0 0.00 0.00 0.00 48
20210303124344 29 315 5.0 9.0 0.00 0.00 0.00 48
20210303123534 29 315 5.0 10.0 0.00 0.00 0.00 49
20210303122026 29 315 5.0 9.0 0.00 0.00 0.00 49